Flag for Canada Weather past 2 weeks in Medicine Hat, Alberta, Canada

Now
59 °F

Broken clouds.


Feels Like: 58 °F
Forecast: 54 / 77 °F
Wind: 6 mph from Southwest

Location: Medicine Hat

Current Time: Jul 7, 2015 at 7:59:02 AM

Latest Report: Jul 7, 2015 at 7:00 AM


Visibility: 15 mi

Pressure: 30.06 "Hg (27.79 "Hg at 661m altitude)

Humidity: 77%

Dew point: 52 °F

Location of Medicine HatLocation

Historic Weather in Medicine Hat — Graph

°F

Medicine Hat temperature yesterday

Maximum temperature yesterday: 75 °F (at 5:00 PM)
Minimum temperature yesterday: 45 °F (at 5:00 AM)
Average temperature yesterday: 61 °F

Past Weeks' High & Low Weather Summary

 TemperatureHumidityPressure
High100 °F (Jun 28, 5:00 PM)100% (Jun 24, 4:00 AM)30.26 "Hg (Jun 24, 4:00 AM)
Low45 °F (Jul 6, 5:00 AM)15% (Jun 28, 5:00 PM)29.67 "Hg (Jul 3, 8:00 PM)
Average71 °F54%29.99 "Hg
* Reported Jun 22 7:00 AM — Jul 7 7:00 AM, Medicine Hat, Weather by CustomWeather, © 2015

Note: Actual official high and low records may vary slightly from our data, if they occured in-between our weather recording intervals... More about our weather records

Advertising

Medicine Hat weather history for previous 24 hours

 ConditionsComfort  
Time TempWeatherWind HumidityBarometerVisibility
7:00 AM
Tue, Jul 7
59 °FBroken clouds.6 mph77%30.06 "Hg15 mi
6:00 AM57 °FPassing clouds.No wind82%30.05 "Hg9 mi
5:00 AM61 °FLight rain. Mostly cloudy.3 mph68%30.04 "Hg9 mi
4:45 AM61 °FLight rain. Mostly cloudy.2 mph68%30.04 "Hg9 mi
4:00 AM63 °FMostly cloudy.10 mph59%30.06 "Hg9 mi
3:00 AM61 °FOvercast.8 mph59%30.06 "Hg9 mi
2:00 AM57 °FPassing clouds.7 mph67%30.05 "Hg9 mi
1:00 AM57 °FPassing clouds.6 mph67%30.05 "Hg9 mi
12:00 AM63 °FClear.3 mph52%30.02 "Hg9 mi
11:00 PM
Mon, Jul 6
63 °FClear.3 mph52%30.02 "Hg9 mi
10:00 PM68 °FSunny.2 mph43%30.02 "Hg9 mi
9:00 PM72 °FScattered clouds.2 mph38%30.02 "Hg30 mi
8:00 PM73 °FScattered clouds.5 mph31%30.03 "Hg30 mi
7:00 PM75 °FPartly sunny.5 mph27%30.04 "Hg30 mi
6:00 PM75 °FPartly sunny.7 mph29%30.06 "Hg30 mi
5:00 PM75 °FPartly sunny.8 mph29%30.09 "Hg30 mi
4:00 PM73 °FPartly sunny.8 mph33%30.11 "Hg30 mi
3:00 PM73 °FScattered clouds.9 mph36%30.13 "Hg30 mi
2:00 PM72 °FScattered clouds.10 mph38%30.15 "Hg30 mi
1:00 PM70 °FPassing clouds.3 mph38%30.17 "Hg30 mi
12:00 PM68 °FPassing clouds.6 mph43%30.18 "Hg30 mi
11:00 AM66 °FScattered clouds.2 mph49%30.20 "Hg30 mi
10:00 AM61 °FScattered clouds.6 mph63%30.22 "Hg30 mi
9:00 AM57 °FScattered clouds.5 mph77%30.23 "Hg30 mi
8:00 AM52 °FScattered clouds.3 mph88%30.24 "Hg15 mi
7:00 AM46 °FSunny.3 mph100%30.26 "Hg8 mi
Weather by CustomWeather, © 2015

See weather overviewHow to use our weather pages